sat.trackr.live / text

‹ back to catalog

STARLINK-36649

NORAD 67837 · 2026-033S

PAYLOAD ACTIVE UNKNOWN

§ Identity

Operator
Country
US
Launch date
2026-02-16
Launch site
AFETR
Launch vehicle
Mass (kg)
RCS (m²)

Purposes: comms

External: N2YO · Heavens-Above · Gunter

§ Orbital elements

Epoch: 2026-05-25T03:32:42.772128Z

Period
94.27 min
Inclination
42.9971°
Eccentricity
0.0001581
Mean motion
15.27594149 rev/d
Perigee alt
481.9 km
Apogee alt
484.1 km
Semi-major
6,861.1 km
B*
4.8490e-4
RAAN
195.5743°
Arg perigee
324.2803°
Mean anomaly
35.7942°
Rev number
1,636

§ Raw data

STARLINK-366491 67837U 26033S   26145.14771727  .00013111  00000+0  48490-3 0  99932 67837  42.9971 195.5743 0001581 324.2803  35.7942 15.27594149 16369

JSON: /api/v1/satellites/67837 · /tle

For live sub-satellite position, see the globe view (requires WebGL).

§ Visibility from observer

Set your observer location to see the next 7 days of passes ≥ 10°. The values pass through the URL so the page stays shareable.

No JS? Fill the form by hand. The geolocation button needs JavaScript.